Change the Weather History Date:

Friday, November 18, 2011

  Actual Average (KLNR) Record (KLNR)
Temperature  
Mean Temperature 39 °F -  
Max Temperature 50 °F 42 °F 69 °F (1999)
Min Temperature 28 °F 26 °F 10 °F (2014)
Degree Days  
Heating Degree Days 26    
Moisture  
Dew Point 21 °F    
Average Humidity 49    
Maximum Humidity 69    
Minimum Humidity 32    
Precipitation  
Precipitation 0.00 in - - ()
Sea Level Pressure  
Sea Level Pressure 29.86 in    
Wind  
Wind Speed 13 mph (South)    
Max Wind Speed 28 mph    
Max Gust Speed 37 mph    
Visibility 10 miles    
Events      
Averages and records for this station are not official NWS values.
T = Trace of Precipitation, MM = Missing Value Source: NWS Daily Summary

Daily Weather History Graph

Daily Weather History Graph

Search for Another Location

Airport or City:

Trip Planner

Search our weather history database for the weather conditions in past years. The results will help you decide how hot, cold, wet, or windy it might be!

Date:

Astronomy

Nov. 18, 2011 Rise Set
Actual Time 6:56 AM CST 4:35 PM CST
Civil Twilight 6:25 AM CST 5:05 PM CST
Nautical Twilight 5:51 AM CST 5:40 PM CST
Astronomical Twilight 5:17 AM CST 6:13 PM CST
Moon No Moon Rise 12:31 PM CST (11/18)
Length of Visible Light 10h 40m
Length of Day
9h 38m
Waning Gibbous, 49% of the Moon is Illuminated
Nov 18
Waning Gibbous
Nov 25
New
Dec 2
First Quarter
Dec 10
Full
Dec 17
Last Quarter

Hourly Weather History & Observations

Time (CST) Temp. Windchill Dew Point Humidity Pressure Visibility Wind Dir Wind Speed Gust Speed Precip Events Conditions
12:15 AM 28.4 °F 19.1 °F 17.6 °F 64% 30.05 in 10.0 mi SSE 10.4 mph - N/A   Clear
12:35 AM 28.4 °F 19.7 °F 17.6 °F 64% 30.04 in 10.0 mi SSE 9.2 mph - N/A   Clear
12:55 AM 30.2 °F 21.3 °F 17.6 °F 60% 30.03 in 10.0 mi SSE 10.4 mph - N/A   Clear
1:15 AM 30.2 °F 21.3 °F 17.6 °F 60% 30.03 in 10.0 mi SSE 10.4 mph - N/A   Clear
1:35 AM 30.2 °F 20.8 °F 17.6 °F 60% 30.02 in 10.0 mi SSE 11.5 mph - N/A   Clear
1:55 AM 30.2 °F 21.3 °F 17.6 °F 60% 30.02 in 10.0 mi SSE 10.4 mph - N/A   Clear
2:15 AM 30.2 °F 21.3 °F 19.4 °F 64% 30.00 in 10.0 mi SSE 10.4 mph - N/A   Clear
2:35 AM 30.2 °F 20.8 °F 19.4 °F 64% 30.00 in 10.0 mi SSE 11.5 mph - N/A   Clear
2:55 AM 30.2 °F 20.8 °F 19.4 °F 64% 29.98 in 10.0 mi SSE 11.5 mph - N/A   Clear
3:15 AM 30.2 °F 21.9 °F 19.4 °F 64% 29.98 in 10.0 mi SSE 9.2 mph - N/A   Clear
3:35 AM 30.2 °F 21.3 °F 19.4 °F 64% 29.97 in 10.0 mi SSE 10.4 mph - N/A   Clear
3:55 AM 30.2 °F 21.9 °F 19.4 °F 64% 29.96 in 10.0 mi SSE 9.2 mph - N/A   Clear
4:15 AM 30.2 °F 21.3 °F 21.2 °F 69% 29.95 in 10.0 mi South 10.4 mph - N/A   Clear
4:35 AM 32.0 °F 22.5 °F 21.2 °F 64% 29.94 in 10.0 mi South 12.7 mph 19.6 mph N/A   Clear
4:55 AM 33.8 °F 23.2 °F 21.2 °F 60% 29.94 in 10.0 mi South 17.3 mph 20.7 mph N/A   Clear
5:15 AM 33.8 °F 23.2 °F 21.2 °F 60% 29.93 in 10.0 mi South 17.3 mph 24.2 mph N/A   Clear
5:35 AM 33.8 °F 23.9 °F 21.2 °F 60% 29.92 in 10.0 mi South 15.0 mph 24.2 mph N/A   Clear
5:55 AM 33.8 °F 22.8 °F 21.2 °F 60% 29.92 in 10.0 mi South 18.4 mph 24.2 mph N/A   Clear
6:15 AM 33.8 °F 23.9 °F 21.2 °F 60% 29.91 in 10.0 mi South 15.0 mph 23.0 mph N/A   Clear
6:35 AM 33.8 °F 24.8 °F 21.2 °F 60% 29.91 in 10.0 mi South 12.7 mph 21.9 mph N/A   Clear
6:55 AM 33.8 °F 24.3 °F 21.2 °F 60% 29.91 in 10.0 mi South 13.8 mph 20.7 mph N/A   Clear
7:15 AM 35.6 °F 26.6 °F 21.2 °F 56% 29.91 in 10.0 mi South 13.8 mph 20.7 mph N/A   Clear
7:35 AM 35.6 °F 26.6 °F 19.4 °F 52% 29.91 in 10.0 mi South 13.8 mph 23.0 mph N/A   Clear
7:55 AM 35.6 °F 27.1 °F 19.4 °F 52% 29.91 in 10.0 mi South 12.7 mph 18.4 mph N/A   Clear
8:15 AM 37.4 °F 28.2 °F 19.4 °F 48% 29.90 in 10.0 mi South 16.1 mph 21.9 mph N/A   Clear
8:35 AM 39.2 °F 30.8 °F 21.2 °F 49% 29.90 in 10.0 mi South 15.0 mph 23.0 mph N/A   Clear
8:55 AM 41.0 °F 32.2 °F 19.4 °F 42% 29.89 in 10.0 mi SSW 18.4 mph 29.9 mph N/A   Clear
9:15 AM 41.0 °F 31.9 °F 19.4 °F 42% 29.88 in 10.0 mi SSW 19.6 mph 27.6 mph N/A   Clear
9:35 AM 42.8 °F 33.5 °F 19.4 °F 39% 29.88 in 10.0 mi SSW 23.0 mph 33.4 mph N/A   Clear
9:55 AM 42.8 °F 33.3 °F 19.4 °F 39% 29.87 in 10.0 mi SSW 24.2 mph 31.1 mph N/A   Clear
10:15 AM 44.6 °F 35.5 °F 19.4 °F 37% 29.86 in 10.0 mi SSW 25.3 mph 33.4 mph N/A   Clear
10:35 AM 44.6 °F 35.3 °F 19.4 °F 37% 29.86 in 10.0 mi SSW 26.5 mph 33.4 mph N/A   Clear
10:55 AM 44.6 °F 35.9 °F 21.2 °F 39% 29.85 in 10.0 mi SSW 23.0 mph 27.6 mph N/A   Clear
11:15 AM 44.6 °F 35.7 °F 21.2 °F 39% 29.83 in 10.0 mi SSW 24.2 mph 31.1 mph N/A   Clear
11:35 AM 44.6 °F 36.4 °F 21.2 °F 39% 29.82 in 10.0 mi SSW 20.7 mph 28.8 mph N/A   Clear
11:55 AM 46.4 °F 37.5 °F 21.2 °F 37% 29.80 in 10.0 mi SSW 27.6 mph 35.7 mph N/A   Clear
12:15 PM 46.4 °F 37.7 °F 21.2 °F 37% 29.80 in 10.0 mi SSW 26.5 mph 36.8 mph N/A   Clear
12:35 PM 46.4 °F 38.7 °F 21.2 °F 37% 29.79 in 10.0 mi SSW 20.7 mph 31.1 mph N/A   Clear
12:55 PM 46.4 °F 39.8 °F 21.2 °F 37% 29.78 in 10.0 mi SSW 16.1 mph 28.8 mph N/A   Clear
1:15 PM 46.4 °F 39.0 °F 21.2 °F 37% 29.77 in 10.0 mi SSW 19.6 mph 33.4 mph N/A   Clear
1:35 PM 50.0 °F - 21.2 °F 32% 29.76 in 10.0 mi SSW 24.2 mph 32.2 mph N/A   Clear
1:55 PM 50.0 °F - 21.2 °F 32% 29.75 in 10.0 mi SSW 23.0 mph 33.4 mph N/A   Clear
2:15 PM 50.0 °F - 21.2 °F 32% 29.74 in 10.0 mi SSW 21.9 mph 29.9 mph N/A   Clear
2:55 PM 50.0 °F - 21.2 °F 32% 29.74 in 10.0 mi SSW 18.4 mph 28.8 mph N/A   Clear
3:15 PM 50.0 °F - 21.2 °F 32% 29.74 in 10.0 mi SSW 12.7 mph 26.5 mph N/A   Clear
3:35 PM 50.0 °F - 23.0 °F 35% 29.74 in 10.0 mi South 11.5 mph 17.3 mph N/A   Clear
3:55 PM 50.0 °F - 23.0 °F 35% 29.73 in 10.0 mi South 13.8 mph - N/A   Clear
4:15 PM 50.0 °F - 23.0 °F 35% 29.73 in 10.0 mi SSW 15.0 mph 26.5 mph N/A   Clear
4:55 PM 46.4 °F 43.5 °F 23.0 °F 40% 29.75 in 10.0 mi South 5.8 mph - N/A   Clear
5:15 PM 44.6 °F 41.4 °F 23.0 °F 43% 29.76 in 10.0 mi South 5.8 mph - N/A   Clear
5:35 PM 44.6 °F 40.7 °F 23.0 °F 43% 29.76 in 10.0 mi South 6.9 mph - N/A   Clear
5:55 PM 44.6 °F 40.2 °F 23.0 °F 43% 29.76 in 10.0 mi South 8.1 mph - N/A   Clear
6:15 PM 44.6 °F 40.2 °F 23.0 °F 43% 29.76 in 10.0 mi South 8.1 mph - N/A   Clear
6:35 PM 42.8 °F 38.6 °F 23.0 °F 46% 29.77 in 10.0 mi South 6.9 mph - N/A   Clear
6:55 PM 42.8 °F 39.3 °F 23.0 °F 46% 29.77 in 10.0 mi South 5.8 mph - N/A   Clear
7:15 PM 42.8 °F 39.3 °F 23.0 °F 46% 29.77 in 10.0 mi South 5.8 mph - N/A   Clear
7:35 PM 42.8 °F 39.3 °F 23.0 °F 46% 29.77 in 10.0 mi South 5.8 mph - N/A   Clear
8:15 PM 41.0 °F 35.8 °F 23.0 °F 49% 29.77 in 10.0 mi SSE 8.1 mph - N/A   Clear
8:55 PM 39.2 °F 33.0 °F 23.0 °F 52% 29.78 in 10.0 mi SSE 9.2 mph - N/A   Mostly Cloudy
9:15 PM 41.0 °F 35.2 °F 23.0 °F 49% 29.78 in 10.0 mi SSE 9.2 mph - N/A   Overcast
9:35 PM 39.2 °F 33.0 °F 23.0 °F 52% 29.78 in 10.0 mi SSE 9.2 mph - N/A   Overcast
9:55 PM 39.2 °F 33.0 °F 23.0 °F 52% 29.78 in 10.0 mi SSE 9.2 mph - N/A   Overcast
10:15 PM 39.2 °F 33.0 °F 23.0 °F 52% 29.78 in 10.0 mi SSE 9.2 mph - N/A   Overcast
10:35 PM 39.2 °F 33.0 °F 24.8 °F 56% 29.77 in 10.0 mi SSE 9.2 mph - N/A   Overcast
10:55 PM 41.0 °F 35.2 °F 24.8 °F 53% 29.77 in 10.0 mi SSE 9.2 mph - N/A   Overcast
11:15 PM 41.0 °F 35.2 °F 24.8 °F 53% 29.77 in 10.0 mi South 9.2 mph - N/A   Overcast
11:35 PM 41.0 °F 35.8 °F 24.8 °F 53% 29.77 in 10.0 mi South 8.1 mph - N/A   Overcast
11:55 PM 42.8 °F 38.0 °F 23.0 °F 46% 29.78 in 10.0 mi South 8.1 mph - N/A   Overcast